Regional Weather Roundup
Issued by NWS Newport/Morehead, NC

Current Version | Previous Version | Graphics & Text | Print | Product List | Glossary On
Versions: 1 2 3 4 5 6 7 8 9 10 11 12 13 14 15 16 17 18 19 20 21 22 23 24 25 26 27 28 29 30 31 32 33 34 35 36 37 38 39 40 41 42 43 44 45 46 47 48 49 50
865
ASUS42 KMHX 080012
RWRMHX
WEATHER ROUNDUP FOR EASTERN NORTH CAROLINA
NATIONAL WEATHER SERVICE NEWPORT/MOREHEAD CITY NC
700 PM EST WED DEC 07 2016

NOTE: "FAIR" INDICATES FEW OR NO CLOUDS BELOW 12,000 FEET
WITH NO SIGNIFICANT WEATHER AND/OR OBSTRUCTIONS TO VISIBILITY

NCZ015>017-031-032-045>047-102-103-080100-
NORTH COAST

CITY           SKY/WX    TMP DP  RH WIND       PRES   REMARKS
EDENTON        CLOUDY    49  46  88 CALM      30.10R
ELIZABETH CITY MOCLDY    46  42  86 NE5       30.10R
KITTY HAWK     CLOUDY    50  46  84 CALM      30.07R
MANTEO         CLEAR     49  44  83 NE7       30.09R

$$

NCZ045>047-081-094-103-104-080100-
CENTRAL COAST

CITY           SKY/WX    TMP DP  RH WIND       PRES   REMARKS
FRISCO         NOT AVBL

$$

NCZ095-097-098-100-101-080100-
SOUTHERN COAST

CITY           SKY/WX    TMP DP  RH WIND       PRES   REMARKS
BEAUFORT       PTCLDY    50  45  83 E3        30.08R
CEDAR ISLAND   NOT AVBL
JACKSONVILLE   CLEAR     49  47  93 CALM      30.08R
PINEY ISLAND   CLEAR    N/A N/A N/A E6        30.08R
WILMINGTON     CLEAR     49  48  97 CALM      30.08R


$$

NCZ011>013-027>030-043-044-078>080-089-090>093-098-080100-
COASTAL PLAIN

CITY           SKY/WX    TMP DP  RH WIND       PRES   REMARKS
AHOSKIE        PTCLDY    42  41  97 CALM      30.10R FOG
CLINTON        CLEAR     48  47  95 CALM      30.08R
ELIZABETHTOWN  CLEAR     50  47  90 CALM      30.07R
GOLDSBORO      CLEAR     47  47  99 CALM      30.07R
GREENVILLE     CLEAR     45  45 100 CALM      30.10R
HAVELOCK       CLEAR     48  44  86 E5        30.09R
KENANSVILLE    NOT AVBL
KINSTON        CLEAR     45  43  93 CALM      30.10R
NEW BERN       CLEAR     46  43  89 CALM      30.09R
RICHLANDS      CLEAR     46  45  96 CALM      30.09R
ROCKY MOUNT    CLEAR     42  42 100 CALM      30.09R
WASHINGTON     CLEAR     44  41  91 CALM      30.09R
WHITEVILLE     CLEAR     50  47  90 CALM      30.07R

$$

AMZ130-135-150-152-154-156-158-170-250-252-270-ANZ085-086-088-633-658-670-080100-
MARINE OBSERVATIONS

STATION/POSITION TIME  TEMP    WIND        PRES    WAVE   SWELL
                       AIR SEA DIR/SP/G            HT/PER HT/PER
                 (UTC) (F)     (DEG/KT/KT) (MB)    (FT/S) (FT/S)
CHESAPEAKE LIGHT NOT AVBL
64 E VA BEACH    2350   53 59  350/ 12/ 16 1017.7    8/12   7/12
DUCK             2348   51 54   20/ 13/ 16 1018.3
2 E DUCK         NOT AVBL
OREGON INLET     2342   51 55  350/  7/ 12 1018.6
13E OREGON INLT  NOT AVBL
HATTERAS CG      2348   52 60   30/  9/ 12 1018.3
DIAMOND BUOY     2350   58 77   10/ 12/ 16 1018.5    7/11   7/11
CAPE LOOKOUT     2300   54      40/  8/  9 1017.9
BEAUFORT LAB     2348   51 55   60/  4/  5 1017.6
30 SE NEW RVR IN 2308   56 71   70/  4/  8 1018.3
30 SE NEW RVR IN NOT AVBL
27 SE WRIGHTSVLE 2308   58 68   70/  4/  8 1017.8
5 SE WRIGHTSVLE  2308   55 61  130/  8/ 12 1017.7
225 S CAPE HAT   2350   70 74  330/ 10/ 14 1017.4    6/ 7   5/ 7
41 SE CHARLESTON 2350   63 74  290/  4/  6 1017.9    2/ 7   2/ 7

$$




USA.gov is the U.S. government's official web portal to all federal, state and local government web resources and services.